Location: Newark
(51.5033°N, 0.1199°W)
Time: 16:03:15
(UTC+00:00)

METEOR M2 - Visible Passes

Search period start: 15 September 2019 00:00
Search period end: 25 September 2019 00:00
Orbit: 819 x 827 km, 98.5° (Epoch: 15 September)

Date Brightness Start Highest point End Pass type
(mag) Time Alt. Az. Time Alt. Az. Time Alt. Az.
15 Sep ? 19:39:36 10° SSE 19:44:58 89° WSW 19:50:23 10° NNW visible
15 Sep ? 21:22:43 10° WSW 21:25:55 16° W 21:29:08 10° NW visible
16 Sep ? 19:19:48 10° SSE 19:25:05 66° ENE 19:30:26 10° N visible
16 Sep ? 21:01:36 10° SW 21:05:44 22° W 21:09:55 10° NW visible
17 Sep ? 19:00:10 10° SE 19:05:16 48° ENE 19:10:25 10° N visible
17 Sep ? 20:40:54 10° SSW 20:45:38 31° W 20:50:24 10° NNW visible
18 Sep ? 18:40:42 10° SE 18:45:30 35° ENE 18:50:21 10° N visible
18 Sep ? 20:20:29 10° S 20:25:35 44° W 20:30:44 10° NNW visible
19 Sep ? 20:00:17 10° S 20:05:35 63° WSW 20:10:57 10° NNW visible
19 Sep ? 21:45:52 10° W 21:46:52 10° W 21:47:52 10° WNW visible
20 Sep ? 19:40:18 10° SSE 19:45:40 87° WSW 19:51:05 10° NNW visible
20 Sep ? 21:23:29 10° WSW 21:26:37 16° W 21:29:47 10° NW visible
21 Sep ? 19:20:29 10° SSE 19:25:47 68° ENE 19:31:08 10° N visible
21 Sep ? 21:02:21 10° SW 21:06:27 22° W 21:10:35 10° NW visible
22 Sep ? 19:00:50 10° SE 19:05:57 49° ENE 19:11:08 10° N visible
22 Sep ? 20:41:38 10° SSW 20:46:21 31° W 20:51:05 10° NNW visible
23 Sep ? 18:41:22 10° SE 18:46:12 36° ENE 18:51:03 10° N visible
23 Sep ? 20:21:12 10° S 20:26:17 43° W 20:31:26 10° NNW visible
24 Sep ? 18:22:05 10° ESE 18:26:29 27° ENE 18:30:54 10° N visible
24 Sep ? 20:01:14 11° S 20:06:18 62° WSW 20:11:39 10° NNW visible
24 Sep ? 21:46:53 10° W 21:47:35 10° W 21:48:18 10° WNW visible
